Regional Weather Roundup
Issued by NWS Cleveland, OH

Home | Current Version | Previous Version | Text Only | Print | Product List | Glossary Off
Versions: 1 2 3 4 5 6 7 8 9 10 11 12 13 14 15 16 17 18 19 20 21 22 23 24 25 26 27 28 29 30 31 32 33 34 35 36 37 38 39 40 41 42 43 44 45 46 47 48 49 50

000
ASUS41 KCLE 200800
RWRCLE
OHIO REGIONAL WEATHER ROUNDUP
NATIONAL WEATHER SERVICE WILMINGTON, OH
400 AM EDT SAT SEP 20 2014

NOTE: "FAIR" INDICATES FEW OR NO CLOUDS BELOW 12,000 FEET WITH NO
SIGNIFICANT WEATHER AND/OR OBSTRUCTIONS TO VISIBILITY.

OHZ001>008-015>018-024>027-034-035-043-044-200900-
   NORTHWEST OHIO

CITY           SKY/WX    TMP DP  RH WIND       PRES   REMARKS
DEFIANCE       CLEAR     53  46  77 S5        30.01F
FINDLAY        PTCLDY    51  46  83 S9        30.02F
TOLEDO EXPRESS CLEAR     51  47  86 S3        30.01F
TOLEDO METCALF PTCLDY    52  45  77 S6        30.01F
LIMA           PTCLDY    57  49  74 S8        30.03F
$$

OHZ009>014-019>023-028>033-038-089-200900-
   NORTHEAST OHIO

CITY           SKY/WX    TMP DP  RH WIND       PRES   REMARKS
CLE-HOPKINS    MOCLDY    62  57  83 S13       30.07S
CLE-LAKEFRONT  MOCLDY    62  56  80 S16       30.04S
CUY CO. ARPT   NOT AVBL
LORAIN-ELYRIA  PTCLDY    60  54  80 S9        30.06F
ASHTABULA      PTCLDY    59  55  87 S12       30.08F
AKRON-CANTON   MOCLDY    61  56  83 S10       30.09S
WOOSTER        NOT AVBL
MANSFIELD      MOCLDY    59  56  89 S9        30.08S
YOUNGSTOWN     PTCLDY    59  56  89 S8        30.10F
$$

OHZ042-051>053-060>062-070>072-077>081-200900-
  SOUTHWEST OHIO

CITY           SKY/WX    TMP DP  RH WIND       PRES   REMARKS
CINC-COVINGTON PTCLDY    61  57  87 S6        30.05F
CINC-LUNKEN    PTCLDY    53  52  96 CALM      30.07F FOG
HAMILTON       PTCLDY    51  50  96 CALM      30.06F FOG
DAYTON         NOT AVBL
WRIGHT-PAT AFB PTCLDY    56  51  84 SE3       30.06F
DAYTON GENERAL PTCLDY    59  54  83 S5        30.05F
WILMINGTON     CLEAR     58  54  86 S5        30.07S
$$

OHZ036-037-039>041-045>050-054>059-063>069-073>076-082>088-200900-
  CENTRAL AND SOUTHEAST OHIO

CITY           SKY/WX    TMP DP  RH WIND       PRES   REMARKS
COLUMBUS       PTCLDY    61  54  77 CALM      30.08R
OSU AIRPORT    PTCLDY    59  53  80 S5        30.08R
BOLTON FIELD   NOT AVBL
RICKENBACK AFB NOT AVBL
NEWARK         PTCLDY    62  58  86 S3        30.08F
MARION         MOCLDY    55  51  86 S8        30.06F
LANCASTER      PTCLDY    63  58  83 S6        30.09S
ZANESVILLE     PTCLDY    61  56  83 S8        30.10S
NEW PHILLY     PTCLDY    61  57  87 CALM      30.11S
$$



USA.gov is the U.S. government's official web portal to all federal, state and local government web resources and services.